[[{"header":{"parameterUnit":"m.s-1","parameterCategory":1,"la1":30.2991,"la2":30.254,"lo1":-89.0895,"lo2":-89.0444,"dy":0.0017,"dx":0.0017,"nx":28,"ny":28,"refTime":"2024-11-25T03:00:00:Z","depth":0,"parameterNumber":2,"parameterNumberName":"U-component_of_WINDS"},"data":[0,0,0,0,0,0,0,0,0,0,0,0,0,0,0,0,0,0,0,0,0,0,0,0,0,0,0,0,0,0,0,0,0,0,0,0,0,0,0,0,0,0,0,0,0,0,0,0,0,0,0,0,0,0,0,0,0,0,0.5942,0.5942,0,0.5958,0.5958,0.5959,0.5966,0.5966,0.5966,0.5966,0.5982,0.5982,0.5983,0,0,0,0,0,0,0,0,0,0,0,0,0,0.5917,0.5918,0.5942,0.5942,0.5942,0.5958,0.5958,0.5959,0.5966,0.5966,0.5966,0.5966,0.5982,0.5982,0.5983,0,0,0,0,0,0,0,0,0,0,0,0,0,0.593,0.5918,0.5942,0.5948,0.5949,0.5958,0.5959,0.5959,0.5966,0.5966,0.5966,0.5966,0.5981,0.5982,0.5983,0.5987,0,0,0.5985,0.5985,0,0,0,0,0,0,0,0,0.593,0.5931,0.5947,0.5948,0.5949,0.596,0.5956,0.5968,0.5966,0.596,0.5966,0.5966,0.5975,0.5976,0.5979,0.5988,0.5988,0.5985,0.5985,0.5985,0.5986,0,0,0,0,0,0,0,0.5929,0.5931,0.5948,0.5947,0.5948,0.595,0.5952,0.5958,0.5967,0.596,0.5961,0.5963,0.5975,0.5978,0.5979,0.5989,0.5985,0.5985,0.5986,0.5986,0.6003,0.6003,0,0,0,0,0,0,0.5927,0.593,0.5948,0.5949,0.5939,0.5951,0.5953,0.5956,0.5967,0.5968,0.5963,0.5963,0.5977,0.5978,0.598,0.5986,0.5985,0.5986,0.5986,0.6003,0.6003,0.6003,0,0,0,0,0,0,0.5926,0.5928,0.5947,0.594,0.5942,0.5951,0.5955,0.5957,0.596,0.5969,0.597,0.5964,0.5977,0.5979,0.5985,0.5987,0.5986,0.5987,0.6003,0.6003,0.6003,0.5998,0,0,0,0,0,0,0.5926,0.5928,0.593,0.594,0.5942,0.5953,0.5955,0.5957,0.5961,0.5962,0.5971,0.5972,0.5977,0.5984,0.5986,0.5987,0.5987,0.6002,0.6003,0.6003,0.5998,0.5998,0.5998,0,0,0,0,0,0.5925,0.5927,0.593,0.5932,0.5945,0.5953,0.5954,0.596,0.5961,0.5963,0.5969,0.5972,0.5986,0.5985,0.5987,0.5988,0.6002,0.6003,0.6003,0.5998,0.5998,0.5998,0,0,0,0,0,0,0.5917,0.5929,0.5932,0.5937,0.5944,0.5954,0.5956,0.596,0.5966,0.5966,0.5973,0.5975,0.5981,0.5986,0.5984,0.5994,0.5995,0.5995,0.599,0.599,0.599,0.5989,0.5988,0,0,0,0,0,0.5916,0.5921,0.5931,0.5936,0.5939,0.5947,0.5951,0.5955,0.5962,0.5965,0.5971,0.5977,0.5983,0.5987,0.5993,0.5999,0.6001,0.6001,0.6001,0.6001,0.6001,0.6005,0.6005,0.6003,0.6003,0.6003,0,0,0.5914,0.5921,0.5924,0.5934,0.594,0.5946,0.5949,0.5955,0.5959,0.5965,0.5972,0.5977,0.5985,0.5991,0.5994,0.5995,0.6002,0.6001,0.6,0.6001,0.6005,0.6005,0.6005,0.6003,0.6003,0.6003,0,0,0.5913,0.5919,0.5923,0.5929,0.5938,0.5943,0.5945,0.5954,0.5958,0.5965,0.597,0.5975,0.5985,0.5991,0.5995,0.5997,0.6,0.5999,0.5998,0.6002,0.6002,0.6002,0.6003,0.6003,0.5999,0.5999,0.5999,0,0.5909,0.5918,0.5925,0.5931,0.5935,0.5942,0.5947,0.5952,0.5962,0.5965,0.5966,0.598,0.5985,0.5993,0.5994,0.5997,0.5999,0.5998,0.6001,0.6002,0.6002,0.6003,0.6003,0.5999,0.5999,0.5999,0.5999,0,0.5913,0.5919,0.5921,0.5932,0.5937,0.5942,0.595,0.5954,0.5959,0.5964,0.5971,0.5979,0.5987,0.5989,0.5993,0.5998,0.5998,0.6,0.6001,0.6002,0.6003,0.6003,0.5999,0.5999,0.5999,0.5999,0,0,0.5906,0.5921,0.5922,0.5927,0.5938,0.5943,0.5949,0.5957,0.596,0.5968,0.5973,0.5982,0.5984,0.5989,0.5993,0.5997,0.5999,0.5999,0.5999,0.5998,0.6005,0.6003,0.6004,0.6001,0.6001,0.6001,0.6004,0,0.5906,0.5917,0.5924,0.5932,0.5938,0.5946,0.5951,0.5958,0.5964,0.597,0.5976,0.5982,0.5985,0.5988,0.5991,0.5998,0.6,0.5998,0.6006,0.6006,0.6003,0.6004,0.6002,0.6004,0.6005,0.6005,0.6005,0,0.5908,0.5915,0.5924,0.5935,0.5938,0.5942,0.5951,0.5957,0.5965,0.5969,0.5975,0.598,0.5987,0.5988,0.5997,0.5996,0.6,0.6003,0.6004,0.6004,0.6005,0.6005,0.6005,0.6005,0.6006,0.6006,0.6006,0,0.5902,0.5915,0.5922,0.5926,0.5939,0.5942,0.5947,0.5956,0.5961,0.5969,0.5972,0.598,0.5984,0.5991,0.5998,0.5998,0.6007,0.6008,0.601,0.601,0.6011,0.6011,0.6012,0.6014,0.6014,0.6014,0.6014,0,0.5902,0.5907,0.5919,0.5924,0.593,0.5938,0.5944,0.595,0.5958,0.5964,0.5971,0.5976,0.5985,0.5992,0.5997,0.6004,0.6006,0.601,0.6011,0.6009,0.6008,0.6011,0.6011,0.6014,0.6014,0.6014,0.6014,0,0.5896,0.5905,0.5913,0.5925,0.5928,0.5932,0.5943,0.5947,0.5954,0.5961,0.5963,0.5973,0.5981,0.5989,0.6,0.6004,0.601,0.6013,0.6008,0.6008,0.601,0.6009,0.6012,0.6013,0.6015,0.6015,0.6015,0,0.5895,0.5899,0.5912,0.5916,0.5922,0.5929,0.5934,0.5944,0.5949,0.596,0.5963,0.5972,0.5979,0.5991,0.5999,0.6008,0.601,0.6011,0.6011,0.6009,0.601,0.6009,0.601,0.601,0.601,0.601,0.601,0,0.5892,0.5896,0.5904,0.5913,0.5919,0.5927,0.5935,0.5938,0.5949,0.5955,0.5963,0.5969,0.598,0.5989,0.5999,0.6004,0.6009,0.601,0.6011,0.6008,0.6005,0.6007,0.6007,0.6009,0.6009,0.601,0.601,0.601,0.5888,0.5892,0.5902,0.5911,0.5918,0.5926,0.5931,0.5939,0.5946,0.5956,0.5961,0.597,0.5979,0.5993,0.5999,0.6006,0.6007,0.6008,0.6008,0.6008,0.6008,0.6005,0.6007,0.6007,0.6007,0.6007,0.6007,0,0.5885,0.5893,0.59,0.5912,0.5918,0.5923,0.5933,0.5938,0.5946,0.5954,0.5962,0.5972,0.5981,0.599,0.5999,0.6003,0.6005,0.6005,0.6005,0.6006,0.6006,0.6004,0.6003,0.6003,0.6003,0.6003,0.6003,0.6003,0.5885,0.5892,0.5898,0.591,0.5917,0.5926,0.5931,0.5938,0.5945,0.5957,0.5964,0.5971,0.598,0.599,0.5998,0.6001,0.6004,0.6003,0.6006,0.6006,0.6006,0.6006,0.6005,0.6003,0.6003,0.6005,0.6005,0.6005]},{"header":{"parameterUnit":"m.s-1","parameterCategory":1,"la1":30.2991,"la2":30.254,"lo1":-89.0895,"lo2":-89.0444,"dy":0.0017,"dx":0.0017,"nx":28,"ny":28,"refTime":"2024-11-25T03:00:00:Z","depth":0,"parameterNumber":3,"parameterNumberName":"V-component_of_WINDS"},"data":[0,0,0,0,0,0,0,0,0,0,0,0,0,0,0,0,0,0,0,0,0,0,0,0,0,0,0,0,0,0,0,0,0,0,0,0,0,0,0,0,0,0,0,0,0,0,0,0,0,0,0,0,0,0,0,0,0,0,-4.3492,-4.3493,0,-4.358,-4.3581,-4.3582,-4.3565,-4.3564,-4.3562,-4.3561,-4.3645,-4.3649,-4.3652,0,0,0,0,0,0,0,0,0,0,0,0,0,-4.3303,-4.3306,-4.3492,-4.3493,-4.3494,-4.358,-4.3581,-4.3583,-4.3566,-4.3564,-4.3562,-4.356,-4.3644,-4.3648,-4.3653,0,0,0,0,0,0,0,0,0,0,0,0,0,-4.3387,-4.3308,-4.3492,-4.3496,-4.3497,-4.358,-4.3582,-4.3583,-4.3566,-4.3564,-4.3561,-4.3559,-4.3642,-4.3648,-4.3653,-4.3735,0,0,-4.367,-4.3673,0,0,0,0,0,0,0,0,-4.3383,-4.3394,-4.3494,-4.3496,-4.3497,-4.356,-4.3546,-4.3634,-4.3567,-4.354,-4.3561,-4.3558,-4.3618,-4.3625,-4.3647,-4.3739,-4.3743,-4.3671,-4.3674,-4.3677,-4.3678,0,0,0,0,0,0,0,-4.3377,-4.339,-4.3527,-4.3496,-4.3498,-4.3492,-4.3501,-4.3562,-4.3591,-4.3542,-4.3541,-4.3552,-4.3618,-4.3642,-4.3649,-4.3744,-4.3671,-4.3676,-4.3679,-4.3681,-4.3909,-4.3912,0,0,0,0,0,0,-4.337,-4.3386,-4.3524,-4.3529,-4.3433,-4.3497,-4.3508,-4.3542,-4.359,-4.3595,-4.3554,-4.3551,-4.3633,-4.3642,-4.3652,-4.3752,-4.3677,-4.3682,-4.3685,-4.3906,-4.391,-4.3913,0,0,0,0,0,0,-4.3366,-4.3383,-4.352,-4.3457,-4.3474,-4.3503,-4.3541,-4.3545,-4.3568,-4.3599,-4.3604,-4.3573,-4.3632,-4.3644,-4.3715,-4.3755,-4.3684,-4.3689,-4.3903,-4.3907,-4.3911,-4.3953,0,0,0,0,0,0,-4.3361,-4.3381,-4.3414,-4.3458,-4.3478,-4.3584,-4.3544,-4.3548,-4.3579,-4.3576,-4.3618,-4.3623,-4.3631,-4.3707,-4.3721,-4.3761,-4.3694,-4.39,-4.3905,-4.391,-4.3948,-4.3958,-4.3966,0,0,0,0,0,-4.3354,-4.342,-4.3416,-4.3432,-4.3519,-4.3586,-4.3597,-4.3607,-4.3582,-4.3614,-4.3635,-4.3622,-4.3748,-4.3715,-4.373,-4.3773,-4.3897,-4.3904,-4.391,-4.3944,-4.3956,-4.3966,0,0,0,0,0,0,-4.3377,-4.3426,-4.3421,-4.3504,-4.3542,-4.3583,-4.3624,-4.3619,-4.3662,-4.3657,-4.3665,-4.3675,-4.3748,-4.3767,-4.3729,-4.3855,-4.3819,-4.3829,-4.384,-4.3852,-4.3861,-4.3854,-4.3698,0,0,0,0,0,-4.3392,-4.3444,-4.3483,-4.3552,-4.3572,-4.3595,-4.3624,-4.3629,-4.3667,-4.3682,-4.3707,-4.3743,-4.3791,-4.3822,-4.3868,-4.3951,-4.396,-4.3988,-4.3997,-4.4004,-4.4012,-4.4059,-4.4072,-4.3933,-4.3933,-4.3933,0,0,-4.3422,-4.3456,-4.3488,-4.3558,-4.3587,-4.364,-4.3608,-4.3664,-4.3703,-4.369,-4.376,-4.378,-4.382,-4.3898,-4.3934,-4.3916,-4.4053,-4.4012,-4.4017,-4.4022,-4.4066,-4.4079,-4.4091,-4.3937,-4.3936,-4.3935,0,0,-4.3505,-4.3536,-4.3598,-4.3629,-4.3675,-4.3691,-4.3706,-4.3749,-4.3763,-4.3834,-4.3825,-4.387,-4.3952,-4.3982,-4.4008,-4.4105,-4.4095,-4.412,-4.4167,-4.4212,-4.4223,-4.4233,-4.4268,-4.4281,-4.4128,-4.4128,-4.4128,0,-4.3537,-4.3618,-4.3629,-4.3688,-4.3719,-4.3713,-4.3775,-4.3804,-4.3861,-4.3882,-4.3863,-4.3968,-4.3994,-4.408,-4.4104,-4.4125,-4.4142,-4.4115,-4.4221,-4.4231,-4.424,-4.4274,-4.4287,-4.413,-4.413,-4.413,-4.413,0,-4.3655,-4.3711,-4.3755,-4.3815,-4.3851,-4.3911,-4.3931,-4.3965,-4.3967,-4.3984,-4.4057,-4.4089,-4.4142,-4.4163,-4.4163,-4.4249,-4.4237,-4.4219,-4.4183,-4.4256,-4.4288,-4.4301,-4.4134,-4.4133,-4.4133,-4.4132,0,0,-4.3753,-4.3821,-4.3837,-4.3865,-4.3916,-4.3959,-4.4019,-4.4073,-4.4103,-4.4144,-4.4194,-4.4265,-4.4249,-4.4279,-4.4283,-4.4323,-4.4399,-4.43,-4.4301,-4.4318,-4.4496,-4.451,-4.4525,-4.4393,-4.4396,-4.4398,-4.4493,0,-4.3842,-4.395,-4.3963,-4.4059,-4.4111,-4.4106,-4.4158,-4.4195,-4.4213,-4.4259,-4.4277,-4.4328,-4.4304,-4.4322,-4.4361,-4.4382,-4.4435,-4.4375,-4.4439,-4.4441,-4.443,-4.4541,-4.4556,-4.4644,-4.4506,-4.4508,-4.4509,0,-4.3959,-4.4007,-4.4109,-4.4155,-4.4178,-4.4224,-4.4277,-4.4321,-4.4362,-4.4372,-4.4407,-4.4407,-4.4467,-4.4429,-4.4513,-4.4471,-4.4498,-4.4513,-4.4516,-4.4523,-4.448,-4.4551,-4.4673,-4.4686,-4.4529,-4.4527,-4.4526,0,-4.4022,-4.4111,-4.4184,-4.4208,-4.4264,-4.4297,-4.4321,-4.436,-4.4393,-4.4438,-4.4459,-4.4509,-4.4537,-4.4575,-4.4588,-4.4559,-4.4671,-4.4634,-4.4681,-4.4681,-4.4705,-4.4703,-4.4833,-4.4721,-4.4721,-4.4721,-4.472,0,-4.412,-4.4183,-4.4214,-4.4258,-4.4329,-4.4343,-4.4411,-4.4433,-4.4469,-4.4517,-4.4515,-4.4559,-4.4574,-4.4621,-4.4631,-4.47,-4.4711,-4.4721,-4.4723,-4.4722,-4.4721,-4.4739,-4.4734,-4.4724,-4.4723,-4.4723,-4.4722,0,-4.4202,-4.4225,-4.4305,-4.4353,-4.4366,-4.4415,-4.4455,-4.4498,-4.4516,-4.4577,-4.4592,-4.462,-4.4676,-4.4693,-4.4759,-4.4766,-4.4846,-4.4842,-4.4833,-4.4833,-4.488,-4.4875,-4.5026,-4.5047,-4.4921,-4.4923,-4.4924,0,-4.4263,-4.4312,-4.4366,-4.44,-4.4427,-4.448,-4.4514,-4.453,-4.4565,-4.4618,-4.4654,-4.471,-4.4755,-4.4844,-4.4869,-4.492,-4.4917,-4.4967,-4.4925,-4.4922,-4.4919,-4.4916,-4.4922,-4.4975,-4.4976,-4.4977,-4.4978,0,-4.437,-4.438,-4.4431,-4.4487,-4.4529,-4.4572,-4.4614,-4.4641,-4.4663,-4.4703,-4.4761,-4.4797,-4.4866,-4.4921,-4.4974,-4.4996,-4.4991,-4.4991,-4.5005,-4.5004,-4.4997,-4.5003,-4.4855,-4.4987,-4.4986,-4.4986,-4.4985,-4.4985,-4.4444,-4.4488,-4.4534,-4.4591,-4.4625,-4.4665,-4.4709,-4.4734,-4.4784,-4.4843,-4.4849,-4.4912,-4.4953,-4.5023,-4.5049,-4.5097,-4.5083,-4.5102,-4.5107,-4.5112,-4.5117,-4.499,-4.5107,-4.5106,-4.5106,-4.5106,-4.5106,0,-4.4551,-4.4581,-4.4634,-4.4695,-4.474,-4.4734,-4.478,-4.4818,-4.4875,-4.4915,-4.4961,-4.5028,-4.5082,-4.5113,-4.5166,-4.52,-4.5198,-4.5213,-4.5211,-4.5217,-4.5126,-4.5109,-4.5213,-4.5213,-4.5213,-4.5213,-4.5213,-4.5213,-4.4612,-4.4687,-4.4703,-4.4794,-4.4823,-4.4887,-4.4915,-4.4951,-4.4984,-4.5061,-4.5107,-4.5127,-4.5163,-4.522,-4.5269,-4.5277,-4.5297,-4.5313,-4.5319,-4.5234,-4.5223,-4.5212,-4.5197,-4.5317,-4.5317,-4.5406,-4.5406,-4.5407]}]]